Location: Beau Repaire
(50.6144°N, 4.0551°E)
Time: 08:02:25
(UTC+00:00)

Daily predictions for brighter satellites

Satellite Brightness Start Highest point End
(mag) Time Altitude Azimuth Time Altitude Azimuth Time Altitude Azimuth
NOSS 3-3 (A) 3.7 19:58:54 10° SSW 20:04:00 61° SE 20:10:07 10° NE
Okean 1 Rocket 4.4 20:00:05 10° SSW 20:04:19 45° WNW 20:08:36 10° N
Cosmos 1544 Rocket 4.5 20:00:55 10° SSE 20:04:41 30° E 20:08:27 10° NNE
Cosmos 44 Rocket 4.5 19:59:58 10° WSW 20:04:57 52° NW 20:10:03 10° NE
Cosmos 1437 Rocket 3.9 20:04:18 10° SE 20:07:07 22° E 20:09:59 10° NE
Cosmos 2360 Rocket 3.1 20:02:53 10° NNW 20:08:10 37° NE 20:13:25 10° ESE
Helios 1A Rocket 2.2 20:06:03 10° NNE 20:09:14 88° ESE 20:12:22 10° SSW
Cosmos 1452 Rocket 4.3 20:05:33 10° SW 20:10:42 59° WNW 20:15:54 10° NNE
CZ-4B R/B 3.5 20:07:57 10° S 20:13:37 75° WSW 20:19:13 10° NNW
Cosmos 2233 Rocket 4.0 20:09:13 10° S 20:15:22 75° E 20:21:31 10° NNE
Cosmos 1302 Rocket 4.2 20:12:52 10° SSW 20:18:02 79° WNW 20:23:16 10° NNE
Okean-O 2.6 20:15:39 10° SSE 20:19:59 72° ENE 20:24:22 10° N
Cosmos 2219 Rocket 3.4 20:15:45 10° NNW 20:20:49 32° NE 20:25:51 10° ESE
Cosmos 1758 Rocket 3.7 20:16:45 10° N 20:21:07 61° ENE 20:25:29 10° SSE
Cosmos 909 Rocket 4.0 20:15:01 10° SSW 20:21:16 70° SE 20:27:46 10° NE
CZ-2C R/B 4.2 20:21:31 10° E 20:23:05 14° ENE 20:24:40 10° NNE
DNEPR-1 R/B 4.4 20:23:19 10° NW 20:28:42 73° NE 20:34:57 11° SE
USA 245 4.5 20:25:51 10° SSE 20:31:36 59° ENE 20:36:56 10° N
ADEOS 4.2 20:27:11 10° S 20:32:18 56° W 20:37:27 10° NNW
Cosmos 1805 3.9 20:31:24 10° N 20:34:18 29° ENE 20:36:34 14° SE
NOSS 3-3 (C) 3.7 20:31:14 10° SW 20:36:31 81° SE 20:42:54 10° NE
Cosmos 220 Rocket 4.4 20:33:05 10° S 20:36:48 37° ESE 20:40:36 10° NE
Cosmos 2322 Rocket 2.4 20:35:16 10° NNW 20:40:54 62° NE 20:45:49 14° SE
Cosmos 1602 Rocket 3.7 20:40:48 10° N 20:45:05 61° ENE 20:48:44 14° SSE
USA 306 3.1 20:42:17 10° W 20:45:07 35° NNW 20:47:02 10° ENE
Cosmos 2082 Rocket 2.9 20:40:41 10° SW 20:46:19 58° NW 20:51:59 10° NNE
NOSS 3-4 (A) 3.8 20:41:39 10° NW 20:48:15 85° NE 20:55:06 14° SE
NOSS 3-4 (C) 3.9 20:42:17 10° NW 20:48:55 84° NE 20:55:45 14° SE
YAOGAN 11 4.1 20:47:36 10° NNE 20:52:05 89° SE 20:56:33 10° SSW
CZ-4B R/B 2.5 20:49:58 16° SSE 20:52:33 69° ENE 20:56:03 10° N
Cosmos 2151 3.0 20:51:14 10° NNW 20:55:22 76° W 20:59:05 12° S
Cosmos 2098 Rocket 3.4 20:53:24 13° SSE 20:57:21 46° E 21:01:16 10° NNE
Cosmos 1076 Rocket 4.5 20:53:51 10° N 20:57:43 32° ENE 21:00:20 17° SE
Cosmos 44 4.4 20:52:50 10° NW 20:58:02 43° NE 21:02:45 12° ESE
Cosmos 2237 Rocket 4.5 20:54:52 10° N 20:58:14 16° NNE 21:01:36 10° ENE
CZ-4C R/B 4.0 20:55:28 10° W 20:59:46 33° NNW 21:05:12 10° NE
Cosmos 1626 Rocket 4.3 20:56:53 10° NNW 21:01:08 51° W 21:05:23 10° S
Ariane Rocket 3.0 20:59:02 16° SSE 21:03:09 75° ENE 21:08:14 10° NNW
Cosmos 2278 3.9 21:02:23 10° NNW 21:08:05 69° WSW 21:12:37 16° SSE
SL-16 R/B 2.8 21:06:34 10° NW 21:12:03 51° WSW 21:16:43 14° S
COSMOS 2428 4.2 21:07:42 10° NNW 21:12:38 29° NE 21:17:33 10° ESE
Meteor 1-5 Rocket 4.3 21:07:15 10° N 21:13:02 81° ENE 21:17:38 17° SSE
SPOT 3 Rocket 3.7 21:09:24 14° S 21:13:49 73° WSW 21:18:58 10° NNW
Cosmos 1763 Rocket 4.0 21:10:53 16° SSE 21:14:35 40° ESE 21:19:28 10° NE
USA 186 3.6 21:13:11 10° SSW 21:15:22 21° W 21:17:36 10° NW
USA 290 2.4 21:18:07 26° S 21:19:33 48° ESE 21:22:36 10° NE
Cosmos 1606 Rocket 3.6 21:17:15 19° S 21:20:13 59° E 21:24:28 10° NNE
Cosmos 990 Rocket 4.1 21:17:33 10° NNW 21:22:43 66° ENE 21:26:04 22° SE
Cosmos 1933 3.9 21:20:22 10° SSW 21:24:05 53° WNW 21:27:50 10° N
Cosmos 1464 Rocket 3.9 21:18:41 13° S 21:24:12 74° E 21:30:24 10° NNE
ISS -3.7 21:22:22 10° W 21:25:43 77° N 21:28:14 17° E
Helios 1B rocket 4.0 21:24:22 14° E 21:25:57 19° ENE 21:28:28 10° NNE
Cosmos 1461 3.4 21:22:33 10° WSW 21:26:11 52° NW 21:29:48 10° NNE
CZ-4B R/B 3.6 21:23:15 17° S 21:26:50 66° WSW 21:31:42 10° NNW
Okean 1 3.1 21:25:54 27° SSE 21:27:38 56° E 21:31:10 10° NNE
BREEZE-M DEB (TANK) 0.8 21:25:17 10° W 21:27:53 67° S 21:28:12 53° ESE
Cosmos 1726 Rocket 3.6 21:25:49 25° SSE 21:27:54 50° E 21:31:51 10° NNE
COSMOS 2406 4.0 21:24:49 10° SW 21:30:28 56° NW 21:36:08 10° NNE
Terra 4.4 21:28:52 10° WSW 21:31:22 14° W 21:33:53 10° NW
Okean O Rocket 3.6 21:30:53 10° SW 21:34:16 22° W 21:37:40 10° NW
Cosmos 1536 3.7 21:32:17 10° N 21:35:38 31° ENE 21:36:59 24° ESE
GRACE-FO 1 4.4 21:34:58 31° SSE 21:36:31 74° E 21:40:01 10° N
GRACE-FO 2 4.4 21:35:26 31° SSE 21:36:59 75° E 21:40:29 10° N
Cosmos 1428 Rocket 4.5 21:31:22 10° N 21:37:38 89° W 21:42:00 21° S
Cosmos-2242 3.6 21:37:47 28° SE 21:39:17 38° E 21:43:07 10° NNE
Cosmos 1777 Rocket 4.4 21:34:53 10° NNW 21:39:59 55° WSW 21:43:21 21° S
Cosmos 1092 Rocket 4.2 21:35:27 10° N 21:41:33 58° ENE 21:45:20 24° SSE
Cosmos 1437 Rocket 4.4 21:38:30 10° SW 21:41:40 30° WNW 21:44:53 10° N
Cosmos 2333 Rocket 3.4 21:37:15 10° NW 21:42:22 35° WSW 21:46:30 15° SSW
Cosmos 2297 Rocket 4.2 21:46:14 11° ESE 21:47:02 11° E 21:48:45 10° ENE
Okean 1-7 Rocket 4.1 21:43:05 10° NNW 21:47:27 54° W 21:50:19 20° SSW
Cosmos 1833 4.1 21:44:13 13° SSW 21:49:14 69° ESE 21:54:50 10° NNE
Cosmos 1503 Rocket 4.3 21:45:00 10° NNW 21:50:05 58° WSW 21:53:04 24° S
Cosmos 2360 Rocket 2.8 21:46:52 10° NW 21:52:18 48° WSW 21:55:44 22° S
CZ-2C R/B 3.3 21:52:44 25° SW 21:53:36 31° W 21:56:07 10° NNW
Cosmos 1766 2.8 21:52:51 10° N 21:56:03 65° ENE 21:56:45 48° SE
Cosmos 1842 4.2 21:56:49 23° E 21:56:49 23° E 21:59:20 10° NE
Cosmos 2322 4.2 21:51:12 10° NNW 21:56:49 54° NE 22:00:18 23° SE
Cosmos 1975 4.2 21:55:10 10° NNE 21:58:09 23° ENE 21:59:14 20° E
Cosmos 372 Rocket 4.1 21:57:46 10° NNW 22:02:52 65° ENE 22:05:24 29° SE
Cosmos 2034 Rocket 4.0 21:58:36 19° S 22:03:22 88° W 22:09:45 10° N
Cosmos 2221 3.9 22:03:18 22° ESE 22:04:06 23° E 22:07:25 10° NE
Cosmos 2219 Rocket 2.5 21:59:31 10° NW 22:05:06 60° WSW 22:08:05 27° S
Cosmos 1354 Rocket 4.2 21:59:57 10° NNW 22:05:08 62° WSW 22:07:46 28° S
Cosmos 1271 Rocket 3.6 22:06:21 27° E 22:06:24 27° E 22:09:20 10° NNE
Cosmos 540 Rocket 3.5 22:07:44 17° SSW 22:11:42 84° WNW 22:16:53 10° NNE
USA 306 3.9 22:10:27 10° WNW 22:11:19 17° NW 22:11:19 17° NW
Helios 1A 2.7 22:13:00 10° NNE 22:16:56 72° ESE 22:18:07 43° S
Cosmos 1953 Rocket 4.0 22:14:03 10° NNW 22:18:17 52° W 22:20:10 29° SSW
RESURS DK-1 2.5 22:15:29 10° NNW 22:19:26 63° NE 22:20:45 38° ESE
Cosmos 2279 Rocket 4.3 22:16:39 29° SSE 22:19:42 54° E 22:25:46 10° NNE
Aureole 1 Rocket 4.0 22:15:08 10° NNW 22:20:56 75° WSW 22:24:34 29° S
Cosmos 1707 2.2 22:23:33 55° WSW 22:23:47 58° WNW 22:26:35 10° N
Cosmos 2322 Rocket 3.7 22:19:53 10° NW 22:24:32 27° WSW 22:27:37 17° SSW
Cosmos 1634 Rocket 3.9 22:22:33 28° S 22:26:01 81° E 22:32:15 10° NNE
Cosmos 1937 Rocket 3.8 22:22:40 10° NNW 22:27:46 59° ENE 22:30:09 30° SE
TSX-5 3.2 22:26:29 10° NW 22:29:38 71° WSW 22:29:55 65° SSW
SL-16 R/B 4.5 22:27:33 10° NNW 22:31:39 20° NE 22:35:44 10° E
Cosmos 2058 Rocket 3.1 22:30:59 34° SSW 22:32:48 73° WNW 22:37:09 10° N
Geosat 3.9 22:27:49 10° NNE 22:32:51 81° ESE 22:35:38 27° SSW
Cosmos 468 Rocket 3.9 22:30:14 28° SSW 22:33:06 86° ESE 22:38:24 10° NNE
CZ-2C R/B 4.1 22:28:48 10° NNE 22:33:08 47° E 22:34:15 38° SE
GP-B 4.4 22:31:20 10° NNE 22:35:03 26° E 22:36:11 24° ESE
BREEZE-M DEB 4.5 22:32:19 10° WSW 22:37:00 56° SSE 22:49:43 10° E
Meteor 2-9 Rocket 4.1 22:33:38 10° N 22:39:03 75° ENE 22:41:24 35° SSE
Cosmos 44 4.0 22:34:07 10° NW 22:39:16 47° WSW 22:41:01 34° S
Lacrosse 4 Rocket 3.5 22:42:44 13° E 22:42:44 13° E 22:44:01 10° ENE
CZ-2C R/B 4.1 22:39:09 16° ESE 22:42:17 28° ENE 22:46:39 10° N
Cosmos 2237 Rocket 2.8 22:38:11 10° NNW 22:43:44 50° NE 22:47:09 22° ESE
Cosmos 2266 Rocket 4.2 22:41:37 10° N 22:47:35 58° ENE 22:50:26 31° SE
Cosmos 1980 4.1 22:42:26 10° NNW 22:48:01 56° NE 22:51:12 25° ESE
USA 234 3.9 22:42:38 10° ENE 22:48:23 32° SE 22:49:36 30° SSE
Cosmos 1470 2.2 22:45:50 10° NNW 22:49:09 73° W 22:49:19 70° SW
ARIANE 5 R/B 2.6 22:52:41 46° SSE 22:53:59 86° ENE 22:58:30 10° NNW
ALOS 2 2.6 22:54:46 45° SSE 22:56:03 76° ENE 23:00:27 10° N
Cosmos 2227 Rocket 3.9 22:55:49 17° ESE 22:56:55 18° E 23:00:32 10° ENE
COSMOS 2428 2.7 22:51:42 10° NNW 22:57:22 69° WSW 22:59:34 38° S
Helios 1B rocket 2.8 22:58:18 38° WSW 22:58:41 39° W 23:02:00 10° NNW
ISS -2.4 22:59:14 10° W 23:01:11 29° W 23:01:11 29° W
Cosmos 1898 Rocket 3.7 22:57:45 10° NNW 23:02:51 59° WSW 23:04:34 39° SSW
Cosmos 2263 Rocket 4.2 23:03:56 12° ESE 23:05:08 13° E 23:07:23 10° ENE
CZ-2C R/B 4.0 23:01:58 10° NNE 23:07:25 41° E 23:09:26 31° SE
Meteor 1-11 Rocket 3.7 23:02:15 10° NNW 23:07:57 84° ENE 23:10:10 39° SSE
Cosmos 1766 Rocket 4.4 23:04:47 10° N 23:08:50 39° ENE 23:10:08 31° ESE
Cosmos 1536 4.3 23:07:47 10° NW 23:10:42 22° W 23:11:30 21° WSW
SAR-Lupe-2 3.2 23:10:57 78° ESE 23:11:02 80° ENE 23:14:23 10° NNW
Meteor 1-10 Rocket 4.3 23:11:29 37° S 23:13:56 76° E 23:19:53 10° NNE
Cosmos 1238 Rocket 3.8 23:14:04 33° ESE 23:14:43 35° E 23:18:44 10° NNE
PSLV R/B 3.5 23:12:00 10° NNE 23:16:18 70° ESE 23:17:16 51° SSE
Cosmos 1655 Rocket 4.4 23:14:57 10° N 23:21:04 54° ENE 23:24:15 28° SE
Alouette 2 Rocket 4.1 23:23:02 10° N 23:26:44 51° ENE 23:28:18 34° SE
Meteor 1-27 Rocket 3.9 23:25:49 38° SSE 23:28:01 65° E 23:33:42 10° NNE
NOSS 0 Rocket 4.1 23:22:35 10° NW 23:28:35 55° WSW 23:30:48 37° S
Meteor 2-10 Rocket 4.4 23:23:59 10° N 23:29:21 48° ENE 23:32:13 26° SE
Cosmos 841 Rocket 3.7 23:27:23 31° SW 23:29:52 67° WNW 23:35:07 10° NNE
Cosmos 2297 Rocket 2.2 23:27:59 40° S 23:29:56 66° ESE 23:35:33 10° NE
Cosmos 1975 3.8 23:29:53 10° NNW 23:33:09 31° W 23:33:29 30° WSW
Cosmos 1271 Rocket 4.3 23:39:41 19° W 23:40:37 22° WNW 23:43:19 10° NNW
Cosmos 2221 3.4 23:39:35 30° WSW 23:40:54 39° WNW 23:44:52 10° N
Cosmos 1812 Rocket 4.0 23:39:58 38° SW 23:41:16 53° WNW 23:45:39 10° N
ACS3 Solar Sail 2.9 23:38:13 10° NNE 23:43:27 31° E 23:46:10 22° SE
MetOp-A 3.8 23:42:38 46° S 23:44:03 76° WSW 23:48:42 10° NNW
Cosmos 2219 Rocket 4.5 23:47:29 10° W 23:47:49 10° W 23:48:11 10° W
Landsat 5 4.1 23:44:06 10° NNE 23:47:55 38° E 23:48:28 36° ESE
RESURS DK-1 4.3 23:53:53 10° WNW 23:55:58 16° W 23:55:58 16° W
